Change the Weather History Date:

Thursday, August 14, 2014

  Actual Average (KITH) Record (KITH)
Temperature  
Mean Temperature 61 °F -  
Max Temperature 69 °F 79 °F 96 °F (1944)
Min Temperature 54 °F 56 °F 41 °F (1983)
Degree Days  
Heating Degree Days 4    
Growing Degree Days 11 (Base 50)    
Moisture  
Dew Point 48 °F    
Average Humidity 65    
Maximum Humidity 83    
Minimum Humidity 43    
Precipitation  
Precipitation 0.00 in - - ()
Sea Level Pressure  
Sea Level Pressure 29.88 in    
Wind  
Wind Speed 8 mph (West)    
Max Wind Speed 20 mph    
Max Gust Speed 26 mph    
Visibility 10 miles    
Events      
Averages and records for this station are not official NWS values.
T = Trace of Precipitation, MM = Missing Value Source: NWS Daily Summary

Daily Weather History Graph

Daily Weather History Graph

Search for Another Location

Airport or City:

Trip Planner

Search our weather history database for the weather conditions in past years. The results will help you decide how hot, cold, wet, or windy it might be!

Date:

Astronomy

Aug. 14, 2014 Rise Set
Actual Time 6:13 AM EDT 8:11 PM EDT
Civil Twilight 5:43 AM EDT 8:41 PM EDT
Nautical Twilight 5:05 AM EDT 9:18 PM EDT
Astronomical Twilight 4:24 AM EDT 9:59 PM EDT
Moon 10:25 PM EDT (8/14) 10:55 AM EDT (8/14)
Length of Visible Light 14h 58m
Length of Day
13h 57m
Waning Gibbous, 79% of the Moon is Illuminated
Aug 14
Waning Gibbous
Aug 17
Last Quarter
Aug 25
New
Sep 2
First Quarter
Sep 8
Full

Hourly Weather History & Observations

Time (EDT) Temp. Dew Point Humidity Pressure Visibility Wind Dir Wind Speed Gust Speed Precip Events Conditions
12:53 AM 57.0 °F 48.9 °F 74% 29.90 in 10.0 mi West 6.9 mph - N/A   Clear
1:53 AM 55.9 °F 48.9 °F 77% 29.88 in 10.0 mi SW 6.9 mph - N/A   Partly Cloudy
2:53 AM 55.0 °F 50.0 °F 83% 29.87 in 10.0 mi SW 6.9 mph - N/A   Overcast
3:53 AM 54.0 °F 48.9 °F 83% 29.86 in 10.0 mi SW 10.4 mph - N/A   Clear
4:53 AM 54.0 °F 48.9 °F 83% 29.85 in 10.0 mi SW 5.8 mph - N/A   Clear
5:53 AM 54.0 °F 48.9 °F 83% 29.86 in 10.0 mi WSW 9.2 mph - N/A   Clear
6:53 AM 55.0 °F 50.0 °F 83% 29.87 in 10.0 mi WSW 10.4 mph - N/A   Scattered Clouds
7:53 AM 57.9 °F 51.1 °F 78% 29.88 in 10.0 mi West 4.6 mph - N/A   Scattered Clouds
8:53 AM 61.0 °F 51.1 °F 70% 29.88 in 10.0 mi WNW 8.1 mph - N/A   Mostly Cloudy
9:23 AM 60.1 °F 51.1 °F 72% 29.88 in 10.0 mi NW 5.8 mph - N/A   Overcast
9:53 AM 62.1 °F 51.1 °F 67% 29.87 in 10.0 mi West 9.2 mph - N/A   Overcast
10:53 AM 64.0 °F 50.0 °F 60% 29.87 in 10.0 mi NW 8.1 mph - N/A   Mostly Cloudy
11:53 AM 63.0 °F 50.0 °F 63% 29.86 in 10.0 mi West 8.1 mph - N/A   Mostly Cloudy
12:53 PM 68.0 °F 50.0 °F 52% 29.85 in 10.0 mi Variable 6.9 mph - N/A   Partly Cloudy
1:53 PM 68.0 °F 45.0 °F 43% 29.85 in 10.0 mi West 16.1 mph 25.3 mph N/A   Clear
2:53 PM 68.0 °F 46.0 °F 45% 29.85 in 10.0 mi WNW 10.4 mph 19.6 mph N/A   Mostly Cloudy
3:53 PM 68.0 °F 46.9 °F 47% 29.86 in 10.0 mi West 19.6 mph 26.5 mph N/A   Mostly Cloudy
4:53 PM 66.0 °F 46.9 °F 50% 29.88 in 10.0 mi WSW 10.4 mph - N/A   Mostly Cloudy
5:53 PM 64.0 °F 45.0 °F 50% 29.88 in 10.0 mi West 15.0 mph 21.9 mph N/A   Scattered Clouds
6:53 PM 63.0 °F 46.0 °F 54% 29.89 in 10.0 mi West 10.4 mph - N/A   Overcast
7:53 PM 62.1 °F 46.9 °F 58% 29.89 in 10.0 mi WSW 11.5 mph - N/A   Overcast
8:53 PM 60.1 °F 46.9 °F 62% 29.90 in 10.0 mi NW 4.6 mph - N/A   Mostly Cloudy
9:53 PM 59.0 °F 46.9 °F 64% 29.91 in 10.0 mi WNW 6.9 mph - N/A   Overcast
10:53 PM 57.9 °F 46.0 °F 65% 29.91 in 10.0 mi West 4.6 mph - N/A   Overcast
11:53 PM 57.9 °F 45.0 °F 62% 29.91 in 10.0 mi WSW 6.9 mph - N/A   Overcast